Погода в Старой Лебежайке

Россия / Саратовская область     52°41′04″N   47°52′02″E
темп.,
°C
ветер,
м/с
пор.,
м/с
влажн.,
%
обл.,
%
осадки,
мм/ч
давл.,
гПа
погр.,
м
10 мая, пн
пн1001:00+16юв41260100 0.0 1011293
04:00+14вюв2366100 0.0 101247
07:00+15вюв41069100 0.0 1013244
10:00+19вюв61051100 0.0 1014553
13:00+24вюв71036100 0.0 10141867
16:00+24вюв7103994 0.0 10152842
19:00+21всв61350100 0.0 1016369
22:00+19в71649100 0.0 1017479
11 мая, вт
вт1101:00+17в61556100 0.0 1018447
04:00+16всв71757100 0.0 1019468
07:00+16в7146383 0.0 1020518
10:00+18ююв5862100 0.0 1022888
13:00+16ююз447188 0.0 1025666
16:00+18ююз336171 0.0 1025763
19:00+18ююз1161100 0.0 1025500
22:00+15юв1173100 0.1 102615
12 мая, ср
ср1201:00+13вюв2393100 2.2 1026103
04:00+13всв2594100 3.7 1025148
07:00+14всв51287100 0.4 1025460
10:00+15в71479100 0.4 1025476
13:00+17вюв5126488 0.0 1025613
16:00+16юв4968100 0.0 1026258
19:00+17вюв4106960 0.0 1026441
22:00+16в4106729 0.0 1025236
13 мая, чт
чт1301:00+15в5125940 0.0 1025270
04:00+13в4116575 0.0 1025186
07:00+15в5126496 0.0 1025314
10:00+18вюв6105648 0.0 1024427
13:00+21юв594839 0.0 1024614
16:00+24вюв684425 0.0 1023830
19:00+21юв4105997 0.0 1023213
22:00+17юв3464100 0.0 102443
14 мая, пт
пт1401:00+16вюв3462100 0.0 102450
04:00+14вюв336398 0.0 102548
07:00+16вюв286431 0.0 1025205
10:00+21юв584511 0.1 1025481
13:00+25юв68368 0.0 10241140
16:00+26ююв67321 0.0 10231718
19:00+23юв36502 0.0 1023110
22:00+18юв33545 0.0 102322